Погода в Чорткове

Погода в Чорткове : погода сейчас, прогноз погоды и архив. Всё, что Вы хотите узнать о погоде в Чорткове!

Хотите узнать прогноз погоды в Чорткове? Тогда Вам сюда: Погода в Чорткове

Поиск расширенной информации на нашем сайте:

Другие новости

Новости СМИ2

Главная страница сайта

Новости сайта

03.07.2017

Напоминаем, что на нашем специализированном сайте Метеоцентр.Азия вы можете получить высокодетализированные автоматические прогнозы погоды по пунктам России, СНГ и мира в авиационном формате (включающие направление и скорость ветра, видимость, явления погоды, количество и форму облачности, нижнюю и верхнюю границу облачности).


Погода в Чорткове - сегодня

Время (UTC), дата Ветер
(°,м/с) 
Видим.   Явления Облачность Т
(°С)
Тd
(°С)
f(%) Тe
(°С)
Pmin
(гПа)
dP
(гПа)
Po
(мм)
O2
(г/м3)
Тmin Tmax R s Состояние
почвы
03 15.10.17 260 (З) 10 км    10/10 600 м кучево-дожд. 
[Cb calv]
+13.3 +11.2 87 +16  1023.1  739  281           
09 15.10.17 270 (З) 10 км    9/6 600 м кучево-дожд., средняя 
[Cb calv|Ac trans]
+15.6 +12 79 +19  1023.4  0.6  739  279           
15 15.10.17 270 (З) 10 км    9/9 600 м кучево-дожд. 
[Cb calv]
+17.1 +11.8 71 +21  1022.6  739  277           
21 15.10.17 280 (З) 10 км    8/8 600 м 
[Sc]
+14.5 +11.9 84 +19  1025.6  0.9  741  280           
03 16.10.17 260 (З) 4000 м  дымка  ясно 
+11.2 +10.3 94 +14  1027.5  0.7  742  285           
09 16.10.17 300 (СЗ) 10 км    3/3 1000 м 
[Cu hum]
+15.7 +11.9 78 +21  1027.4  0.1  742  280           
15 16.10.17 220 (ЮЗ) 10 км    ясно 
+20.5 +11.7 57 +24  1023.8  -1.2  740  274           
21 16.10.17 260 (З) 10 км    ясно 
+14.8 +9.8 72 +16  1024.3  740  280           
03 17.10.17 250 (З) 10 км    ясно 
+12.8 +9.7 81 +14  1024.8  740  282           
09 17.10.17 270 (З) 20000 м    ясно 
+18.1 +11.8 67 +23  1025  0.2  741  277           
15 17.10.17 тихо ()   20000 м    ясно 
+20.9 +11.5 55 +24  1023  -0.8  739  274           
21 17.10.17 тихо ()   4000 м  дымка  ясно 
+11.3 +9.9 91 +13  1023.7  -0.6  739  283           
03 18.10.17 тихо ()   4000 м  дымка  ясно 
+7.6 +7.1 97 +8  1022.3  -1.1  738  287           
09 18.10.17 060 (СВ) 10 км  {туман}  ясно 
+15.5 +11.8 79 +21  1020.1  -0.4  737  278           
15 18.10.17 тихо ()   20000 м    3/0 верхняя 
[Ci fib]
+20.3 +9.4 50 +21  1016.5  -1  735  273           
21 18.10.17 тихо ()   10 км    ясно 
+11.6 +9.2 85 +12  1017.2  -0.6  734  281           
03 19.10.17 тихо ()   4000 м  дымка  ясно 
+9.3 +8.2 93 +9  1016.3  -0.6  733  283           
09 19.10.17 тихо ()   10 км    8/0 средняя, верхняя 
[Ac trans|Ci fib]
+19.7 +11.3 58 +23  1015.3  0.2  734  273           
15 19.10.17 тихо ()   20000 м    8/0 верхняя 
[Ci fib]
+20.9 +7.6 42 +21  1014.2  -0.3  733  272           
21 19.10.17 тихо ()   10 км    ясно 
+10.8 +7.3 79 +11  1016.8  0.6  734  283           
03 20.10.17 тихо ()   10 км    ясно 
+9.5 +7.4 87 +10  1017.4  734  284           
09 20.10.17 020 (С) 10 км    3/0 верхняя 
[Ci fib]
+14.9 +10.2 73 +18  1018.3  0.9  735  278           
15 20.10.17 020 (С) 10 км    ясно 
+16 +10.7 71 +20  1017.4  0.1  735  277           
03 21.10.17 150 (ЮВ) 0900 м  туман  ?/?  
+11.1 +11.1 100 +15  1017.4  -1.4  734  281           
09 21.10.17 150 (ЮВ) 10 км    9/0 верхняя 
[Cs]
+12.8 +9.3 79 +15  1016.1  -0.6  734  280           
Время (UTC), дата Ветер
(°,м/с) 
Видим.   Явления Облачность Т
(°С)
Тd
(°С)
f(%) Тe
(°С)
Pmin
(гПа)
dP
(гПа)
Po
(мм)
O2
(г/м3)
Тmin Tmax R s Состояние
почвы

Для получения пояснительной информации подведите курсор к названию столбца.

ПОГОДА в Чорткове - архив

Всё, что Вы хотите узнать о погоде в Чорткове - удобно и подробно!

Выберите нужную дату (начиная с 1 января 2015* года) и нажмите кнопку "Найти".
Будут отображены архивные сводки погоды по пункту Чортков, начиная с указанной даты.


Отображать данные в формате CSV (для использования в таблицах Excel)


Внимание! Наш архив погоды предназначен исключительно для личного некоммерческого использования в познавательных целях. Если Вам необходимы официальные справки о состоянии погоды (для производственных, юридических, коммерческих и т.п. целей), обращайтесь в органы Росгидромета.

*Примечание: данная дата относится к архиву по метеостанциям СССР (Россия, СНГ, Балтия).
Архив по метеостанциям Зарубежной Европы и Азии (кроме Китая) хранится 10 дней, по другим регионам земного шара (Китай, Африка, Америка, Австралия, Океания) - 1 день.

Чортков - район местоположения метеостанции


Название, широта, долгота, высота метеостанции:
Чортков 49°ш. 25.8°д. 318 м над ур. моря [Украина]

Дополнительная информация

В oтличие oт бoльшинства пoгoдных сайтoв мы публикуем пoдрoбную метеoинфoрмацию в детальнoм прoфессиoнальнoм фoрмате.

Характеристики температуры и влажнoсти вoздуха измеряются на высoте 2 м в тени вдали oт зданий и деревьев.
Скoрoсть ветра измеряется на высoте 10 м (на урoвне рoста челoвека скoрoсть ветра ниже в 1.5-2 раза). Если метеoстанция нахoдится в гoрoде или в лесу, тo скoрoсть ветра занижена на 2-4 м/с пo сравнению с oткрытым местoм. Скoрoсть ветра над акватoриями крупных рек и oзёр, а также на вершинах хoлмoв на 2-5 м/с выше, чем в oбычных услoвиях.
Атмoсфернoе давление в разных тoчках местнoсти мoжет значительнo oтличаться oт давления на метеoстанции, в зависимoсти oт услoвий рельефа (при пoдъёме на 10 м давление пoнижается примернo на 1 мм рт.ст.).